[[{"header":{"parameterUnit":"m.s-1","parameterCategory":1,"la1":30.2991,"la2":30.254,"lo1":-89.0895,"lo2":-89.0444,"dy":0.0017,"dx":0.0017,"nx":28,"ny":28,"refTime":"2025-05-24T21:00:00:Z","depth":0,"parameterNumber":2,"parameterNumberName":"U-component_of_WINDS"},"data":[0,0,0,0,0,0,0,0,0,0,0,0,0,0,0,0,0,0,0,0,0,0,0,0,0,0,0,0,0,0,0,0,0,0,0,0,0,0,0,0,0,0,0,0,0,0,0,0,0,0,0,0,0,0,0,0,0,0,-2.6268,-2.6269,0,-2.6339,-2.634,-2.6341,-2.6329,-2.6328,-2.6326,-2.6325,-2.6396,-2.6399,-2.6402,0,0,0,0,0,0,0,0,0,0,0,0,0,-2.6124,-2.6127,-2.6268,-2.6269,-2.627,-2.6339,-2.634,-2.6341,-2.6329,-2.6328,-2.6326,-2.6325,-2.6395,-2.6398,-2.6402,0,0,0,0,0,0,0,0,0,0,0,0,0,-2.619,-2.6128,-2.6268,-2.6273,-2.6274,-2.6339,-2.634,-2.6341,-2.6329,-2.6328,-2.6326,-2.6324,-2.6394,-2.6398,-2.6402,-2.6467,0,0,-2.6416,-2.6418,0,0,0,0,0,0,0,0,-2.6186,-2.6195,-2.6271,-2.6272,-2.6274,-2.6323,-2.6315,-2.6383,-2.633,-2.6308,-2.6325,-2.6323,-2.6373,-2.6379,-2.6396,-2.647,-2.6473,-2.6417,-2.6419,-2.6421,-2.6423,0,0,0,0,0,0,0,-2.6182,-2.6192,-2.6296,-2.6272,-2.6274,-2.6271,-2.6279,-2.6328,-2.635,-2.631,-2.6309,-2.6318,-2.6373,-2.6392,-2.6398,-2.6474,-2.6417,-2.6421,-2.6423,-2.6425,-2.6607,-2.6609,0,0,0,0,0,0,-2.6176,-2.6189,-2.6294,-2.6298,-2.6225,-2.6275,-2.6284,-2.6309,-2.6349,-2.6354,-2.6319,-2.6317,-2.6385,-2.6393,-2.64,-2.6479,-2.6421,-2.6426,-2.6428,-2.6605,-2.6607,-2.6609,0,0,0,0,0,0,-2.6173,-2.6186,-2.6291,-2.6243,-2.6257,-2.628,-2.6309,-2.6312,-2.633,-2.6357,-2.636,-2.6334,-2.6384,-2.6394,-2.6451,-2.6481,-2.6428,-2.6432,-2.6602,-2.6605,-2.6608,-2.6636,0,0,0,0,0,0,-2.6169,-2.6185,-2.6209,-2.6244,-2.6259,-2.634,-2.6311,-2.6314,-2.6338,-2.6336,-2.6371,-2.6376,-2.6383,-2.6444,-2.6455,-2.6486,-2.6435,-2.6599,-2.6604,-2.6607,-2.6633,-2.664,-2.6646,0,0,0,0,0,-2.6164,-2.6213,-2.621,-2.6223,-2.629,-2.6342,-2.6351,-2.6359,-2.6341,-2.6365,-2.6383,-2.6374,-2.6477,-2.645,-2.6463,-2.6495,-2.6597,-2.6602,-2.6607,-2.663,-2.6638,-2.6646,0,0,0,0,0,0,-2.6179,-2.6218,-2.6215,-2.6277,-2.6307,-2.634,-2.6371,-2.6368,-2.6403,-2.6399,-2.6408,-2.6416,-2.6474,-2.6491,-2.6461,-2.6561,-2.6534,-2.6542,-2.6547,-2.6556,-2.6563,-2.6557,-2.6439,0,0,0,0,0,-2.619,-2.6229,-2.6261,-2.6313,-2.6328,-2.6347,-2.637,-2.6375,-2.6405,-2.6418,-2.6439,-2.6469,-2.6508,-2.6533,-2.6571,-2.6636,-2.6644,-2.6665,-2.6672,-2.6677,-2.6683,-2.672,-2.673,-2.6625,-2.6625,-2.6625,0,0,-2.6212,-2.6238,-2.6262,-2.6316,-2.634,-2.638,-2.6358,-2.6401,-2.6431,-2.6424,-2.6479,-2.6497,-2.6531,-2.6593,-2.6621,-2.6608,-2.6714,-2.6683,-2.6687,-2.669,-2.6726,-2.6736,-2.6744,-2.6628,-2.6628,-2.6627,0,0,-2.6273,-2.6297,-2.6343,-2.6368,-2.6405,-2.6418,-2.6429,-2.6464,-2.6476,-2.6532,-2.6528,-2.6564,-2.6631,-2.6656,-2.6678,-2.6753,-2.6746,-2.6765,-2.6799,-2.6835,-2.6843,-2.685,-2.6877,-2.6886,-2.6771,-2.6771,-2.6771,0,-2.6296,-2.6357,-2.6367,-2.6412,-2.6436,-2.6434,-2.6481,-2.6504,-2.6551,-2.6568,-2.6554,-2.664,-2.6662,-2.673,-2.6749,-2.6767,-2.678,-2.6759,-2.6841,-2.6849,-2.6856,-2.6881,-2.6891,-2.6773,-2.6772,-2.6772,-2.6772,0,-2.6383,-2.6426,-2.6459,-2.6505,-2.6534,-2.6579,-2.6597,-2.6625,-2.6628,-2.6643,-2.6702,-2.673,-2.6773,-2.679,-2.6793,-2.686,-2.6851,-2.6839,-2.6812,-2.6867,-2.6891,-2.6901,-2.6775,-2.6775,-2.6774,-2.6774,0,0,-2.6451,-2.6506,-2.6518,-2.654,-2.6582,-2.6615,-2.6662,-2.6706,-2.6729,-2.6763,-2.6802,-2.6861,-2.6851,-2.6876,-2.6882,-2.6914,-2.6972,-2.6898,-2.6899,-2.691,-2.7047,-2.7054,-2.7065,-2.6969,-2.6971,-2.6972,-2.7044,0,-2.6516,-2.6598,-2.661,-2.6683,-2.6723,-2.6723,-2.6764,-2.6795,-2.6811,-2.6848,-2.6866,-2.6907,-2.6891,-2.6906,-2.6938,-2.6958,-2.6999,-2.6953,-2.7005,-2.7007,-2.6994,-2.7078,-2.7085,-2.7151,-2.7053,-2.7055,-2.7056,0,-2.66,-2.6638,-2.6714,-2.6753,-2.677,-2.6807,-2.6849,-2.6885,-2.692,-2.693,-2.6959,-2.6963,-2.7012,-2.6985,-2.7053,-2.7022,-2.7045,-2.7058,-2.7061,-2.7064,-2.7033,-2.7083,-2.7173,-2.7182,-2.7071,-2.707,-2.7069,0,-2.6642,-2.6712,-2.6767,-2.6786,-2.6832,-2.6858,-2.6879,-2.6913,-2.6939,-2.6977,-2.6994,-2.7037,-2.706,-2.7093,-2.7108,-2.7087,-2.7176,-2.715,-2.7185,-2.7184,-2.7201,-2.7199,-2.7295,-2.7219,-2.7218,-2.7218,-2.7218,0,-2.6711,-2.6758,-2.6787,-2.682,-2.6873,-2.6889,-2.6941,-2.6961,-2.6992,-2.703,-2.7033,-2.7069,-2.7088,-2.7127,-2.7139,-2.7194,-2.7204,-2.7214,-2.7216,-2.7212,-2.7211,-2.7226,-2.7221,-2.7221,-2.722,-2.722,-2.7219,0,-2.6765,-2.6786,-2.6847,-2.6887,-2.6899,-2.6936,-2.6971,-2.7004,-2.7022,-2.707,-2.7083,-2.711,-2.7156,-2.7176,-2.7232,-2.7241,-2.7303,-2.7303,-2.7291,-2.7292,-2.7325,-2.7321,-2.7432,-2.7447,-2.7362,-2.7363,-2.7363,0,-2.6807,-2.6843,-2.6889,-2.6915,-2.6937,-2.6979,-2.7006,-2.7024,-2.7053,-2.7098,-2.7126,-2.7173,-2.721,-2.7285,-2.731,-2.7353,-2.7353,-2.7389,-2.7359,-2.7355,-2.7353,-2.735,-2.7354,-2.7394,-2.7394,-2.7395,-2.7396,0,-2.6879,-2.6888,-2.6928,-2.6973,-2.7006,-2.7041,-2.7076,-2.7098,-2.7121,-2.7153,-2.7201,-2.7231,-2.729,-2.7336,-2.7382,-2.7404,-2.7404,-2.7406,-2.7416,-2.7411,-2.7403,-2.7407,-2.7304,-2.7402,-2.7401,-2.7401,-2.7401,-2.74,-2.6927,-2.696,-2.6998,-2.7043,-2.7071,-2.7105,-2.7138,-2.7162,-2.7202,-2.7252,-2.726,-2.7312,-2.7349,-2.7411,-2.7435,-2.7475,-2.7466,-2.7481,-2.7484,-2.7488,-2.7489,-2.7398,-2.7484,-2.7484,-2.7484,-2.7483,-2.7483,0,-2.6999,-2.7024,-2.7065,-2.7115,-2.7151,-2.715,-2.7189,-2.7219,-2.7264,-2.7299,-2.7338,-2.7394,-2.744,-2.747,-2.7516,-2.7543,-2.7545,-2.7555,-2.7552,-2.7557,-2.7495,-2.7481,-2.7553,-2.7553,-2.7553,-2.7553,-2.7553,-2.7553,-2.704,-2.7096,-2.711,-2.7181,-2.7206,-2.7257,-2.7279,-2.7311,-2.7339,-2.7402,-2.744,-2.746,-2.7494,-2.7543,-2.7586,-2.7594,-2.761,-2.7621,-2.7628,-2.7569,-2.7561,-2.7554,-2.7541,-2.7625,-2.7625,-2.7687,-2.7687,-2.7688]},{"header":{"parameterUnit":"m.s-1","parameterCategory":1,"la1":30.2991,"la2":30.254,"lo1":-89.0895,"lo2":-89.0444,"dy":0.0017,"dx":0.0017,"nx":28,"ny":28,"refTime":"2025-05-24T21:00:00:Z","depth":0,"parameterNumber":3,"parameterNumberName":"V-component_of_WINDS"},"data":[0,0,0,0,0,0,0,0,0,0,0,0,0,0,0,0,0,0,0,0,0,0,0,0,0,0,0,0,0,0,0,0,0,0,0,0,0,0,0,0,0,0,0,0,0,0,0,0,0,0,0,0,0,0,0,0,0,0,4.2185,4.2185,0,4.2219,4.2219,4.222,4.2214,4.2213,4.2212,4.2212,4.2246,4.2247,4.2248,0,0,0,0,0,0,0,0,0,0,0,0,0,4.2115,4.2117,4.2185,4.2185,4.2186,4.2219,4.2219,4.222,4.2214,4.2213,4.2212,4.2212,4.2245,4.2247,4.2248,0,0,0,0,0,0,0,0,0,0,0,0,0,4.2147,4.2117,4.2185,4.2187,4.2187,4.2219,4.2219,4.222,4.2214,4.2213,4.2212,4.2211,4.2244,4.2247,4.2249,4.228,0,0,4.2255,4.2256,0,0,0,0,0,0,0,0,4.2145,4.215,4.2186,4.2187,4.2187,4.2211,4.2207,4.224,4.2214,4.2204,4.2212,4.2211,4.2235,4.2238,4.2246,4.2282,4.2283,4.2256,4.2257,4.2258,4.2258,0,0,0,0,0,0,0,4.2143,4.2148,4.2198,4.2187,4.2187,4.2186,4.219,4.2213,4.2224,4.2205,4.2204,4.2208,4.2235,4.2244,4.2247,4.2284,4.2256,4.2257,4.2259,4.226,4.235,4.2351,0,0,0,0,0,0,4.214,4.2146,4.2197,4.2199,4.2164,4.2188,4.2192,4.2204,4.2224,4.2226,4.2209,4.2208,4.2241,4.2244,4.2248,4.2288,4.2258,4.226,4.2261,4.2349,4.235,4.2352,0,0,0,0,0,0,4.2139,4.2145,4.2196,4.2173,4.2179,4.219,4.2204,4.2206,4.2215,4.2227,4.2229,4.2216,4.224,4.2245,4.2273,4.2289,4.2261,4.2263,4.2348,4.235,4.2351,4.2367,0,0,0,0,0,0,4.2137,4.2144,4.2156,4.2173,4.2181,4.222,4.2205,4.2207,4.2218,4.2217,4.2234,4.2236,4.224,4.227,4.2275,4.2291,4.2265,4.2346,4.2349,4.2351,4.2365,4.2369,4.2372,0,0,0,0,0,4.2134,4.2158,4.2157,4.2163,4.2195,4.2221,4.2225,4.2229,4.222,4.2232,4.2241,4.2236,4.2286,4.2273,4.2279,4.2296,4.2345,4.2348,4.235,4.2363,4.2368,4.2372,0,0,0,0,0,0,4.2141,4.216,4.2159,4.2189,4.2204,4.222,4.2235,4.2234,4.2251,4.2249,4.2253,4.2257,4.2286,4.2293,4.2278,4.2329,4.2315,4.2318,4.2322,4.2327,4.233,4.2328,4.2266,0,0,0,0,0,4.2147,4.2166,4.2181,4.2206,4.2214,4.2224,4.2235,4.2237,4.2252,4.2258,4.2268,4.2283,4.2303,4.2315,4.2334,4.2366,4.2371,4.2381,4.2385,4.2388,4.2391,4.2411,4.2416,4.236,4.236,4.236,0,0,4.2157,4.217,4.2181,4.2208,4.222,4.224,4.2229,4.225,4.2266,4.2261,4.2289,4.2297,4.2314,4.2345,4.236,4.2353,4.2408,4.2391,4.2393,4.2395,4.2414,4.2419,4.2424,4.2361,4.2361,4.2361,0,0,4.2187,4.2198,4.2221,4.2234,4.2252,4.2259,4.2264,4.2282,4.2288,4.2316,4.2314,4.2333,4.2365,4.2378,4.2389,4.2428,4.2424,4.2434,4.2452,4.2472,4.2476,4.248,4.2495,4.25,4.2437,4.2437,4.2437,0,4.2197,4.2228,4.2233,4.2256,4.2268,4.2267,4.2291,4.2303,4.2326,4.2335,4.2327,4.2371,4.2382,4.2417,4.2427,4.2435,4.2443,4.2431,4.2475,4.2479,4.2483,4.2497,4.2502,4.2438,4.2438,4.2438,4.2438,0,4.2241,4.2262,4.2279,4.2303,4.2317,4.234,4.235,4.2364,4.2366,4.2374,4.2404,4.2418,4.244,4.2449,4.245,4.2485,4.248,4.2474,4.246,4.2489,4.2503,4.2508,4.2439,4.2439,4.2439,4.2438,0,0,4.2273,4.2302,4.2308,4.232,4.2342,4.2359,4.2383,4.2406,4.2419,4.2436,4.2457,4.2486,4.2482,4.2494,4.2497,4.2514,4.2546,4.2506,4.2506,4.2513,4.2587,4.2592,4.2598,4.2544,4.2545,4.2546,4.2586,0,4.2305,4.2348,4.2355,4.2393,4.2414,4.2415,4.2436,4.2452,4.2461,4.2481,4.249,4.2512,4.2503,4.2511,4.2528,4.2538,4.2561,4.2535,4.2564,4.2565,4.256,4.2605,4.261,4.2647,4.2591,4.2592,4.2593,0,4.2348,4.2368,4.2408,4.243,4.2439,4.2458,4.2481,4.2499,4.2519,4.2524,4.254,4.2541,4.2568,4.2553,4.259,4.2573,4.2586,4.2593,4.2595,4.2597,4.258,4.2609,4.2658,4.2664,4.2601,4.26,4.26,0,4.2369,4.2406,4.2435,4.2446,4.2471,4.2485,4.2496,4.2514,4.2529,4.2549,4.2559,4.2582,4.2594,4.2612,4.2621,4.2609,4.2658,4.2643,4.2663,4.2663,4.2673,4.2672,4.2725,4.2681,4.2681,4.268,4.268,0,4.2404,4.2429,4.2446,4.2464,4.2492,4.2501,4.2529,4.254,4.2557,4.2578,4.258,4.2599,4.2609,4.2631,4.2638,4.2668,4.2673,4.2679,4.2681,4.2679,4.2678,4.2687,4.2685,4.2682,4.2682,4.2681,4.2681,0,4.2432,4.2444,4.2476,4.2499,4.2505,4.2526,4.2545,4.2563,4.2573,4.26,4.2607,4.2622,4.2648,4.2659,4.2689,4.2694,4.273,4.2729,4.2723,4.2724,4.2743,4.2742,4.2804,4.2813,4.2762,4.2763,4.2763,0,4.2453,4.2473,4.2499,4.2513,4.2526,4.2549,4.2564,4.2574,4.259,4.2615,4.2631,4.2657,4.2678,4.272,4.2733,4.2758,4.2758,4.2778,4.2762,4.276,4.2759,4.2758,4.2761,4.2781,4.2782,4.2782,4.2782,0,4.2491,4.2497,4.2519,4.2544,4.2563,4.2583,4.2602,4.2614,4.2628,4.2646,4.2673,4.269,4.2723,4.2749,4.2775,4.2787,4.2787,4.2788,4.2794,4.2792,4.2789,4.2792,4.2732,4.2786,4.2786,4.2785,4.2785,4.2785,4.2517,4.2535,4.2557,4.2582,4.2599,4.2618,4.2637,4.265,4.2673,4.2701,4.2706,4.2735,4.2757,4.2792,4.2805,4.2829,4.2824,4.2832,4.2834,4.2836,4.2838,4.2785,4.2833,4.2833,4.2833,4.2833,4.2833,0,4.2555,4.257,4.2594,4.2622,4.2643,4.2643,4.2665,4.2682,4.2708,4.2728,4.275,4.2783,4.2809,4.2826,4.2853,4.2869,4.287,4.2875,4.2874,4.2878,4.2841,4.2833,4.2874,4.2874,4.2874,4.2874,4.2874,4.2874,4.2578,4.2609,4.2618,4.2659,4.2673,4.2703,4.2716,4.2734,4.2751,4.2787,4.2809,4.2821,4.2841,4.2869,4.2894,4.2899,4.2909,4.2915,4.2919,4.2884,4.288,4.2876,4.2869,4.2917,4.2917,4.2954,4.2955,4.2955]}]]